Date String (YYYY-MM-DD hh:mm:ss) UTC,Instrument flags,Ambient pressure (hPa),Sample flow (lpm),Bypass flow (lpm),Sample temperature (°C),Ambient temperature (°C),ASC tube jacket temperature (°C),LED temperature (°C),Box temperature (°C),Sample RH (%),Span deviation,Mass concentration (μg/m³),Mass concentration (μg/m³),Mass concentration (μg/m³)
DateTimeUTC,F1_M11,P_M11,Q1_M11,Q2_M11,T1_M11,T2_M11,T3_M11,T4_M11,T5_M11,U1_M11,ZSPAN_M11,X0_M11,X2_M11,X1_M11
2022-02-14 05:00:00,,0829.1,5.00,0.00,23.4,22.8,00.0,32.3,25.2,05.5,0000.0,0002.08,0000.91,0000.56
2022-02-14 05:01:00,,0829.2,5.01,0.00,23.4,22.8,00.0,32.3,25.2,05.5,0000.0,0002.07,0000.91,0000.55
2022-02-14 05:02:00,,0829.2,4.98,0.00,23.4,22.8,00.0,32.4,25.2,05.5,0000.0,0001.77,0000.90,0000.55
2022-02-14 05:03:00,,0829.2,5.01,0.00,23.4,22.8,00.0,32.4,25.3,05.7,0000.0,0001.74,0000.90,0000.56
2022-02-14 05:04:00,,0829.2,4.99,0.00,23.5,22.8,00.0,32.4,25.3,05.8,0000.0,0001.81,0000.94,0000.60
2022-02-14 05:05:00,,0829.1,5.01,0.00,23.5,22.8,00.0,32.4,25.3,05.9,0000.0,0001.68,0000.95,0000.63
2022-02-14 05:06:00,,0829.1,4.99,0.00,23.5,22.8,00.0,32.4,25.3,05.8,0000.0,0001.64,0000.95,0000.65
2022-02-14 05:07:00,,0829.2,5.01,0.00,23.5,22.8,00.0,32.4,25.3,05.9,0000.0,0001.61,0000.95,0000.66
2022-02-14 05:08:00,,0829.2,4.98,0.00,23.5,22.9,00.0,32.4,25.3,06.1,0000.0,0001.53,0000.95,0000.69
2022-02-14 05:09:00,,0829.1,5.00,0.00,23.5,22.9,00.0,32.4,25.3,05.7,0000.0,0001.52,0000.95,0000.70
2022-02-14 05:10:00,,0829.2,5.00,0.00,23.5,22.8,00.0,32.4,25.3,05.7,0000.0,0001.40,0000.92,0000.70
2022-02-14 05:11:00,,0829.2,5.00,0.00,23.5,22.8,00.0,32.4,25.3,05.9,0000.0,0001.49,0000.98,0000.71
2022-02-14 05:12:00,,0829.2,5.01,0.00,23.5,22.8,00.0,32.4,25.3,06.0,0000.0,0001.58,0001.02,0000.73
2022-02-14 05:13:00,,0829.2,4.99,0.00,23.5,22.9,00.0,32.4,25.3,06.0,0000.0,0001.67,0001.04,0000.73
2022-02-14 05:14:00,,0829.2,5.00,0.00,23.5,22.9,00.0,32.4,25.3,05.9,0000.0,0001.75,0001.04,0000.74
2022-02-14 05:15:00,,0829.2,5.01,0.00,23.5,22.9,00.0,32.4,25.3,05.9,0000.0,0001.64,0000.98,0000.71
2022-02-14 05:16:00,,0829.2,5.00,0.00,23.5,22.9,00.0,32.5,25.3,05.8,0000.0,0001.61,0000.97,0000.68
2022-02-14 05:17:00,,0829.2,4.99,0.00,23.5,22.9,00.0,32.5,25.3,05.8,0000.0,0001.57,0000.95,0000.67
2022-02-14 05:18:00,,0829.3,5.00,0.00,23.5,22.9,00.0,32.5,25.3,05.7,0000.0,0001.63,0000.97,0000.67
2022-02-14 05:19:00,,0829.2,5.01,0.00,23.5,22.9,00.0,32.5,25.3,05.6,0000.0,0002.99,0000.98,0000.65
2022-02-14 05:20:00,,0829.2,4.99,0.00,23.5,22.8,00.0,32.5,25.3,06.0,0000.0,0003.06,0000.96,0000.64
2022-02-14 05:21:00,,0829.2,5.01,0.00,23.5,22.8,00.0,32.5,25.3,05.7,0000.0,0003.08,0000.97,0000.64
2022-02-14 05:22:00,,0829.2,4.99,0.00,23.5,22.8,00.0,32.5,25.3,05.7,0000.0,0003.03,0000.93,0000.64
2022-02-14 05:23:00,,0829.2,5.00,0.00,23.5,22.8,00.0,32.5,25.3,05.6,0000.0,0002.97,0000.90,0000.63
2022-02-14 05:24:00,,0829.2,5.01,0.00,23.5,22.9,00.0,32.5,25.3,05.6,0000.0,0002.92,0000.87,0000.62
2022-02-14 05:25:00,,0829.2,4.99,0.00,23.5,22.9,00.0,32.5,25.3,05.7,0000.0,0002.98,0000.89,0000.61
2022-02-14 05:26:00,,0829.2,5.01,0.00,23.5,22.9,00.0,32.5,25.3,05.7,0000.0,0003.15,0000.94,0000.60
2022-02-14 05:27:00,,0829.2,4.99,0.00,23.5,22.9,00.0,32.5,25.3,05.3,0000.0,0003.20,0000.92,0000.59
2022-02-14 05:28:00,,0829.2,5.01,0.00,23.5,22.9,00.0,32.5,25.3,05.4,0000.0,0003.22,0000.91,0000.59
2022-02-14 05:29:00,,0829.3,5.00,0.00,23.5,22.8,00.0,32.5,25.3,05.5,0000.0,0003.48,0000.91,0000.58
2022-02-14 05:30:00,,0829.2,4.99,0.00,23.5,22.8,00.0,32.5,25.3,05.6,0000.0,0002.92,0000.90,0000.57
2022-02-14 05:31:00,,0829.2,4.99,0.00,23.5,22.8,00.0,32.5,25.3,05.6,0000.0,0002.07,0000.89,0000.56
2022-02-14 05:32:00,,0829.3,5.01,0.00,23.5,22.8,00.0,32.5,25.3,05.5,0000.0,0002.09,0000.90,0000.56
2022-02-14 05:33:00,,0829.2,4.99,0.00,23.5,22.7,00.0,32.5,25.2,05.7,0000.0,0002.18,0000.94,0000.56
2022-02-14 05:34:00,,0829.3,5.01,0.00,23.4,22.7,00.0,32.5,25.2,05.4,0000.0,0002.17,0000.93,0000.56
2022-02-14 05:35:00,,0829.2,4.99,0.00,23.4,22.7,00.0,32.5,25.2,05.5,0000.0,0002.16,0000.93,0000.55
2022-02-14 05:36:00,,0829.2,5.00,0.00,23.4,22.7,00.0,32.4,25.2,05.7,0000.0,0001.95,0000.89,0000.55
2022-02-14 05:37:00,,0829.2,5.02,0.00,23.4,22.7,00.0,32.4,25.2,05.5,0000.0,0001.72,0000.82,0000.54
2022-02-14 05:38:00,,0829.2,5.00,0.00,23.4,22.7,00.0,32.4,25.2,05.6,0000.0,0001.60,0000.80,0000.53
2022-02-14 05:39:00,,0829.2,4.98,0.00,23.5,22.8,00.0,32.4,25.2,05.5,0000.0,0001.50,0000.78,0000.53
2022-02-14 05:40:00,,0829.2,5.02,0.00,23.5,22.8,00.0,32.4,25.2,05.4,0000.0,0001.27,0000.77,0000.53
2022-02-14 05:41:00,,0829.2,5.00,0.00,23.5,22.7,00.0,32.4,25.2,05.5,0000.0,0001.26,0000.76,0000.52
2022-02-14 05:42:00,,0829.2,5.00,0.00,23.4,22.7,00.0,32.4,25.2,05.5,0000.0,0001.27,0000.77,0000.52
2022-02-14 05:43:00,,0829.2,5.01,0.00,23.5,22.7,00.0,32.4,25.2,05.6,0000.0,0001.36,0000.79,0000.52
2022-02-14 05:44:00,,0829.2,4.99,0.00,23.5,22.8,00.0,32.4,25.2,05.7,0000.0,0001.31,0000.75,0000.51
2022-02-14 05:45:00,,0829.2,5.01,0.00,23.5,22.8,00.0,32.4,25.2,05.7,0000.0,0001.33,0000.76,0000.50
2022-02-14 05:46:00,,0829.2,5.00,0.00,23.5,22.8,00.0,32.4,25.2,05.6,0000.0,0001.43,0000.79,0000.51
2022-02-14 05:47:00,,0829.2,4.98,0.00,23.5,22.8,00.0,32.4,25.2,05.6,0000.0,0001.49,0000.81,0000.51
2022-02-14 05:48:00,,0829.2,5.02,0.00,23.4,22.7,00.0,32.4,25.2,05.7,0000.0,0001.51,0000.82,0000.52
2022-02-14 05:49:00,,0829.2,4.98,0.00,23.4,22.7,00.0,32.4,25.2,05.8,0000.0,0001.58,0000.85,0000.52
2022-02-14 05:50:00,,0829.2,5.02,0.00,23.4,22.7,00.0,32.4,25.2,05.9,0000.0,0001.74,0000.90,0000.52
2022-02-14 05:51:00,,0829.2,4.99,0.00,23.4,22.7,00.0,32.4,25.2,05.8,0000.0,0002.11,0000.93,0000.53
2022-02-14 05:52:00,,0829.2,5.00,0.00,23.4,22.7,00.0,32.4,25.2,05.9,0000.0,0002.69,0000.94,0000.54
2022-02-14 05:53:00,,0829.2,5.01,0.00,23.4,22.7,00.0,32.4,25.2,05.9,0000.0,0002.70,0000.94,0000.54
2022-02-14 05:54:00,,0829.2,4.99,0.00,23.4,22.8,00.0,32.4,25.2,05.7,0000.0,0002.56,0000.90,0000.53
2022-02-14 05:55:00,,0829.2,5.02,0.00,23.4,22.8,00.0,32.4,25.2,05.6,0000.0,0002.50,0000.88,0000.53
2022-02-14 05:56:00,,0829.2,4.98,0.00,23.5,22.8,00.0,32.4,25.2,05.6,0000.0,0002.51,0000.87,0000.53
2022-02-14 05:57:00,,0829.2,5.02,0.00,23.5,22.8,00.0,32.4,25.2,05.7,0000.0,0002.42,0000.83,0000.53
2022-02-14 05:58:00,,0829.2,4.98,0.00,23.4,22.7,00.0,32.4,25.2,05.6,0000.0,0002.51,0000.82,0000.53
2022-02-14 05:59:00,,0829.2,5.02,0.00,23.4,22.7,00.0,32.4,25.1,05.7,0000.0,0002.64,0000.87,0000.54
